Wind_Speed
5 5 5 5 5 4 4 4 5 5 5 5 5 6 9 18 24 24 20 14 10 6 2 2 5 5 2 7 13 13 14 13 10 8 5 5 4 7 8 5 6 4 12 12 13
6 6 5 4 4 5 5 5 4 5 4 2 3 4 4 7 15 23 21 19 15 11 7 3 3 6 8 9 12 13 17 19 16 14 16 10 10 7 10 10 3 4 10 15 18
8 7 7 6 5 5 5 5 5 5 2 1 3 3 3 3 4 11 23 23 19 16 12 9 6 9 7 6 9 13 23 23 20 20 15 14 17 14 13 15 11 9 11 15 17
11 9 9 8 8 7 7 6 6 5 3 2 3 4 4 1 2 3 15 20 20 20 17 13 10 10 10 7 11 19 13 17 18 18 18 12 14 22 19 19 11 8 11 14 19
13 12 11 10 10 9 8 8 8 6 5 4 4 4 4 3 6 5 9 17 22 22 20 17 12 10 15 9 14 12 15 13 13 10 10 10 14 18 17 17 14 9 11 14 20
16 14 13 12 12 11 10 9 9 7 6 6 5 6 6 5 7 4 8 8 11 16 20 18 15 17 14 11 12 12 16 13 7 7 8 8 14 14 10 12 14 13 9 16 18
19 17 16 15 14 13 11 11 11 10 8 8 7 7 7 6 11 6 5 7 7 9 14 19 13 16 14 13 9 7 10 5 9 9 6 5 11 11 10 13 11 12 8 10 16
22 20 19 17 16 14 13 12 12 12 10 9 9 6 4 12 7 5 6 8 6 8 12 12 11 17 17 18 14 8 7 10 11 13 7 4 12 5 8 11 15 15 12 8 14
23 23 22 20 19 17 15 14 14 13 12 11 11 7 4 5 3 6 5 10 11 11 12 11 9 13 18 17 16 9 8 9 10 17 10 8 11 4 6 15 18 17 15 12 13
24 24 23 22 21 19 18 17 16 15 15 13 12 8 7 8 9 8 5 17 12 7 9 10 11 13 15 15 14 9 10 16 19 17 4 10 9 14 23 19 16 19 17 11 11
23 23 23 23 22 19 18 19 19 21 19 17 12 10 6 11 10 8 7 13 14 13 14 14 15 15 12 9 12 17 19 22 19 13 18 8 14 17 16 14 17 23 19 10 7
22 22 22 22 22 19 16 19 20 22 22 20 17 16 13 16 17 8 10 10 15 17 15 16 22 14 10 10 12 16 20 23 22 17 17 20 24 26 17 14 16 18 17 8 7
23 22 20 21 21 19 17 19 18 19 21 21 21 22 20 21 21 13 15 11 12 16 13 17 11 10 13 14 16 14 20 20 19 15 17 21 20 22 16 13 18 21 22 13 8
23 23 20 19 20 18 20 20 18 16 14 21 21 20 23 24 27 20 18 17 15 13 9 14 14 11 12 15 14 20 13 11 13 12 15 17 11 12 8 13 24 20 16 14 6
23 22 21 19 19 19 21 19 16 11 5 8 15 18 18 24 19 21 19 23 23 17 16 20 10 11 16 14 16 14 12 12 15 14 13 8 6 9 8 14 18 17 16 12 9
21 22 21 20 19 21 19 16 14 8 9 5 5 9 17 18 21 14 13 22 22 18 20 21 18 19 15 13 14 11 13 12 12 11 4 5 3 5 8 16 21 21 20 15 9
20 21 21 20 21 22 19 18 12 10 7 7 3 8 16 15 13 23 16 15 17 20 25 20 22 22 21 19 14 12 12 5 5 4 6 5 5 3 11 19 22 17 22 29 14
19 19 20 19 25 24 22 22 14 8 21 7 6 3 12 18 16 14 20 23 18 20 21 17 21 22 19 13 11 12 11 8 4 3 7 7 2 7 7 14 22 17 18 16 20
17 17 16 21 25 25 27 29 17 7 8 23 16 8 4 8 19 16 20 22 22 21 26 17 20 18 12 12 12 17 21 20 12 4 2 5 2 5 9 12 16 15 12 11 6
16 14 17 23 21 24 29 32 26 20 12 7 1 2 2 5 2 12 8 9 20 25 27 24 23 14 10 13 10 14 23 10 11 3 3 3 5 8 18 19 18 15 15 10 6
11 11 14 17 20 24 32 32 32 26 23 16 11 10 10 5 4 2 6 5 4 12 24 31 30 24 17 13 10 11 13 15 11 5 7 2 5 18 19 18 20 15 6 7 6
9 10 11 10 15 23 26 23 24 25 28 29 19 14 10 9 10 3 3 2 4 5 14 22 30 35 32 26 21 18 10 10 17 8 6 5 7 8 21 22 19 19 5 3 6
12 13 14 13 8 8 8 12 18 24 24 23 23 11 8 10 8 8 4 3 3 3 6 2 8 23 28 25 15 8 0 3 6 8 7 4 3 12 19 21 22 18 10 5 8
15 10 15 13 11 6 6 10 14 10 12 18 22 11 8 10 9 9 12 6 7 5 3 3 4 6 18 15 9 12 5 2 3 3 5 7 6 5 14 20 17 16 14 11 5
17 13 16 9 5 4 7 9 11 5 3 11 17 13 13 15 12 11 14 16 15 11 7 0 1 0 0 2 3 6 12 6 3 7 3 8 7 5 6 8 15 14 19 14 9
19 17 19 7 5 4 6 9 12 4 3 8 15 14 18 18 14 12 12 14 7 10 8 3 2 4 5 6 5 7 8 8 6 5 10 10 8 9 7 13 20 21 21 16 14
16 18 17 12 7 4 5 7 9 8 3 5 9 15 10 14 16 12 13 15 12 9 6 5 5 5 9 12 6 10 3 8 11 13 15 13 12 11 13 15 18 25 21 16 16
Wind_Direction
211 203 201 194 173 185 194 207 225 237 240 246 249 250 244 238 228 223 212 217 228 236 237 31 14 328 333 2 340 334 304 288 281 274 331 216 239 281 277 295 53 20 14 1 357
227 222 222 211 194 200 214 215 220 231 239 252 268 268 264 255 239 226 214 218 228 234 241 252 309 314 331 329 331 335 324 321 308 300 308 270 261 256 258 256 297 336 3 354 357
240 237 235 233 223 223 232 235 237 245 241 269 303 295 296 289 242 227 213 214 225 235 239 251 266 289 314 306 336 336 322 328 323 295 304 271 247 249 260 263 282 300 338 0 1
247 245 243 245 241 236 244 249 252 265 281 288 306 302 294 205 137 158 200 218 229 232 228 231 246 268 306 317 307 316 321 332 331 316 282 290 240 248 254 265 277 291 340 355 2
250 249 249 249 249 249 250 255 259 270 282 285 289 289 274 213 157 154 187 212 226 231 227 229 230 269 285 284 285 304 324 332 320 333 278 250 230 238 252 255 275 293 306 351 357
249 252 253 252 253 251 252 255 263 267 274 276 278 280 276 254 239 189 214 206 214 226 227 221 235 256 282 276 297 307 333 330 317 266 327 223 239 219 255 293 279 298 300 4 357
246 248 250 252 254 255 255 257 261 266 264 270 273 283 281 238 244 248 230 203 188 188 199 207 211 243 272 266 276 309 324 2 1 338 340 162 240 234 252 287 296 298 273 358 8
250 247 246 248 250 253 255 257 261 261 265 266 270 284 283 252 277 285 220 222 201 198 182 176 200 235 259 260 266 289 308 340 338 324 296 303 283 246 258 308 292 287 266 297 345
251 251 249 248 248 248 253 256 259 260 262 261 266 281 270 267 234 216 216 181 165 161 178 192 210 224 246 264 258 258 273 299 313 331 273 249 260 235 280 303 293 272 285 276 318
252 252 252 252 248 248 251 254 258 258 257 259 262 266 260 217 219 202 195 176 182 195 201 205 217 237 250 261 252 253 277 289 296 306 271 293 260 302 314 309 269 267 277 277 303
252 250 251 254 254 250 251 254 255 255 251 252 248 244 233 222 223 185 176 205 206 219 206 218 235 238 237 233 264 274 276 290 299 307 300 314 315 312 303 292 252 253 261 266 292
257 251 246 248 250 252 251 252 253 256 259 258 256 256 239 234 248 227 219 230 239 236 231 239 242 223 246 278 288 291 274 281 297 289 279 308 307 306 309 267 261 268 258 266 255
256 255 249 244 242 243 244 246 251 259 265 253 253 255 250 232 250 239 232 222 251 232 228 236 230 226 255 272 280 276 278 276 293 292 292 304 306 295 292 247 239 245 251 255 239
255 252 248 245 240 233 236 241 247 259 276 265 261 259 247 245 249 255 246 231 228 231 227 254 210 252 294 296 306 291 249 278 284 292 295 318 299 301 283 235 234 238 234 229 229
256 250 245 238 238 231 233 234 242 255 303 260 240 239 236 240 252 255 243 225 225 226 238 234 241 270 294 276 293 301 274 266 279 287 294 281 290 318 269 229 236 218 209 212 199
254 250 241 236 231 230 226 223 224 212 243 232 231 246 224 223 224 212 218 206 226 236 243 252 259 278 275 272 288 280 270 273 283 276 262 280 310 319 267 244 212 203 198 211 202
251 248 240 230 227 225 217 210 202 215 230 242 223 239 230 217 209 216 190 200 219 228 239 252 257 262 263 273 275 268 261 284 302 308 217 279 311 308 266 237 212 200 217 260 356
250 246 240 225 225 219 211 203 220 235 218 205 194 235 243 235 248 251 226 224 224 233 241 245 266 250 241 251 283 285 298 265 211 224 280 305 326 283 252 210 224 232 249 257 324
248 243 234 223 222 216 211 206 217 193 202 242 271 285 222 255 261 250 243 231 222 225 233 244 260 257 241 248 279 280 290 277 260 291 318 272 202 242 223 228 215 217 277 289 314
245 237 223 224 220 215 216 217 215 198 205 215 343 177 15 4 21 216 236 259 245 247 239 238 255 271 249 281 274 278 283 234 232 146 225 247 197 210 200 213 227 230 251 316 264
239 227 222 214 211 214 223 225 226 216 241 262 254 274 300 295 303 125 157 129 265 250 246 240 248 266 268 284 277 311 249 231 246 205 167 195 233 224 216 226 236 237 254 4 288
216 201 196 182 209 218 230 241 243 234 232 254 259 261 291 263 273 258 125 134 7 314 240 244 238 254 268 276 278 276 277 278 244 244 216 220 229 219 208 228 235 241 269 358 301
193 198 179 187 203 214 226 242 245 237 237 248 244 238 236 259 257 226 223 292 309 55 64 197 227 244 262 265 261 231 181 307 276 226 217 177 255 213 208 214 229 234 249 280 256
186 184 193 207 208 231 274 234 229 232 242 233 220 232 236 243 232 216 243 257 291 317 1 137 145 211 247 260 211 183 186 50 56 224 221 254 272 229 228 230 230 234 223 240 224
197 193 196 220 223 274 249 217 202 234 229 204 215 219 243 242 238 233 238 254 267 278 289 143 152 114 55 162 189 216 228 253 323 7 295 327 318 270 261 251 230 212 226 238 261
199 190 198 195 213 260 203 215 216 187 295 204 206 227 241 248 253 258 262 263 282 248 267 276 299 269 265 273 275 262 247 257 288 315 333 342 346 322 248 217 214 208 210 232 241
201 198 200 209 219 186 196 228 191 203 231 205 201 215 224 241 258 260 268 272 277 267 261 235 271 326 263 272 295 277 243 260 266 278 292 325 318 305 270 248 244 214 214 231 222
Height
3192 3193 3193 3194 3193 3194 3195 3195 3195 3195 3195 3195 3195 3194 3194 3195 3196 3197 3200 3203 3204 3204 3204 3204 3204 3202 3201 3199 3198 3198 3198 3198 3197 3195 3194 3194 3193 3191 3191 3192 3189 3187 3185 3184 3183
3192 3192 3192 3192 3192 3193 3194 3194 3194 3194 3194 3194 3193 3193 3193 3192 3192 3194 3199 3200 3202 3203 3203 3204 3203 3202 3201 3200 3199 3199 3197 3197 3197 3195 3193 3196 3193 3190 3191 3189 3190 3187 3184 3183 3183
3191 3191 3192 3192 3192 3193 3193 3193 3193 3193 3193 3193 3192 3192 3192 3191 3191 3191 3193 3197 3200 3201 3202 3203 3203 3202 3201 3200 3200 3198 3197 3195 3193 3192 3191 3194 3191 3190 3188 3189 3188 3188 3186 3183 3181
3190 3190 3190 3191 3191 3191 3192 3192 3192 3191 3191 3191 3191 3191 3190 3191 3193 3190 3192 3195 3197 3199 3200 3201 3202 3200 3200 3199 3198 3196 3195 3191 3191 3190 3189 3190 3189 3189 3191 3190 3190 3187 3185 3182 3181
3188 3189 3189 3189 3189 3190 3190 3191 3190 3189 3190 3190 3190 3189 3190 3191 3192 3192 3191 3192 3194 3196 3197 3199 3200 3199 3198 3197 3195 3194 3194 3191 3190 3188 3186 3187 3188 3190 3191 3189 3190 3187 3185 3183 3182
3185 3186 3187 3187 3188 3188 3189 3189 3189 3188 3188 3188 3188 3188 3189 3190 3190 3190 3191 3191 3192 3193 3194 3197 3198 3197 3197 3197 3196 3194 3193 3191 3188 3188 3186 3186 3187 3190 3190 3187 3187 3185 3185 3184 3184
3182 3183 3184 3185 3186 3186 3187 3187 3187 3187 3187 3187 3186 3187 3187 3188 3187 3188 3189 3189 3189 3190 3191 3193 3195 3195 3195 3196 3195 3194 3192 3190 3189 3187 3185 3185 3186 3187 3188 3186 3184 3183 3186 3184 3185
3178 3179 3180 3181 3183 3184 3185 3185 3185 3185 3185 3185 3184 3185 3185 3184 3185 3187 3187 3188 3188 3189 3191 3192 3192 3192 3193 3193 3193 3193 3191 3189 3188 3185 3183 3184 3183 3185 3186 3184 3183 3182 3183 3184 3185
3174 3175 3176 3177 3179 3181 3182 3182 3182 3182 3182 3182 3183 3183 3184 3183 3184 3184 3185 3186 3187 3188 3189 3190 3189 3190 3191 3191 3191 3192 3190 3188 3186 3184 3182 3181 3181 3182 3181 3182 3181 3180 3180 3182 3184
3169 3171 3173 3174 3175 3177 3178 3178 3179 3180 3179 3180 3180 3183 3183 3182 3181 3181 3183 3185 3186 3185 3187 3188 3187 3187 3189 3189 3189 3190 3189 3188 3187 3185 3184 3183 3181 3178 3177 3178 3178 3179 3179 3182 3184
3165 3166 3168 3170 3171 3173 3175 3175 3177 3176 3176 3177 3178 3179 3180 3181 3181 3181 3180 3183 3183 3184 3184 3185 3184 3184 3186 3187 3188 3188 3188 3186 3180 3182 3180 3180 3179 3179 3177 3177 3176 3177 3178 3181 3184
3160 3161 3163 3166 3167 3169 3170 3169 3170 3171 3172 3173 3175 3176 3178 3178 3178 3179 3179 3181 3181 3181 3181 3183 3180 3183 3185 3186 3186 3186 3186 3182 3180 3178 3179 3177 3176 3175 3175 3174 3174 3174 3176 3179 3183
3155 3157 3159 3160 3162 3165 3166 3167 3167 3167 3167 3169 3170 3171 3174 3174 3173 3176 3177 3177 3178 3177 3178 3178 3177 3181 3182 3182 3183 3183 3183 3179 3178 3177 3179 3176 3173 3172 3172 3171 3172 3171 3176 3178 3181
3149 3152 3154 3156 3160 3160 3162 3164 3165 3166 3165 3163 3164 3166 3167 3168 3168 3171 3173 3175 3175 3175 3177 3175 3176 3178 3179 3178 3180 3178 3178 3177 3177 3176 3176 3175 3172 3169 3170 3171 3170 3173 3176 3179 3182
3143 3146 3149 3152 3153 3156 3159 3161 3163 3166 3164 3159 3157 3157 3159 3161 3167 3166 3167 3170 3169 3173 3175 3172 3173 3175 3175 3175 3176 3175 3175 3175 3175 3173 3174 3174 3173 3169 3169 3170 3171 3174 3178 3181 3182
3138 3139 3143 3147 3149 3151 3154 3158 3162 3166 3158 3154 3154 3153 3154 3155 3159 3162 3161 3164 3169 3171 3170 3169 3171 3173 3173 3173 3173 3173 3172 3173 3172 3172 3172 3171 3172 3168 3168 3169 3170 3172 3174 3175 3179
3133 3134 3137 3141 3144 3146 3151 3155 3160 3156 3154 3153 3151 3150 3151 3152 3154 3158 3160 3162 3164 3166 3166 3167 3167 3169 3171 3171 3171 3171 3170 3170 3171 3170 3170 3169 3169 3167 3166 3166 3167 3169 3166 3149 3166
3128 3129 3132 3137 3137 3142 3147 3152 3151 3146 3150 3148 3147 3148 3149 3151 3152 3154 3155 3157 3159 3161 3163 3164 3164 3164 3167 3168 3168 3167 3169 3169 3172 3172 3167 3167 3167 3164 3165 3164 3166 3167 3168 3172 3172
3124 3125 3128 3130 3132 3137 3142 3143 3142 3145 3145 3145 3147 3147 3147 3148 3148 3149 3151 3154 3156 3157 3159 3159 3157 3160 3163 3165 3167 3165 3165 3167 3166 3165 3166 3166 3167 3165 3164 3164 3165 3169 3173 3170 3169
3121 3122 3123 3124 3129 3133 3136 3135 3137 3143 3143 3144 3146 3146 3146 3147 3147 3146 3149 3151 3152 3152 3154 3155 3155 3156 3159 3161 3162 3162 3162 3162 3162 3166 3169 3163 3164 3162 3162 3163 3165 3167 3168 3170 3168
3118 3118 3120 3121 3125 3128 3128 3130 3134 3141 3141 3143 3144 3145 3146 3146 3145 3144 3147 3147 3146 3146 3148 3151 3154 3151 3154 3156 3157 3159 3156 3157 3159 3160 3161 3165 3161 3160 3161 3162 3163 3166 3168 3168 3167
3116 3117 3117 3119 3123 3123 3125 3130 3133 3136 3139 3138 3142 3144 3144 3144 3144 3144 3145 3144 3144 3143 3143 3145 3148 3147 3150 3153 3155 3155 3154 3153 3154 3158 3156 3156 3157 3157 3159 3161 3162 3165 3166 3165 3166
3113 3115 3116 3119 3121 3123 3124 3126 3126 3129 3132 3134 3138 3141 3141 3142 3143 3142 3143 3143 3143 3141 3140 3141 3142 3144 3146 3150 3150 3151 3151 3150 3151 3152 3153 3155 3155 3154 3156 3157 3159 3163 3164 3164 3163
3112 3114 3116 3117 3119 3121 3121 3121 3123 3125 3127 3129 3133 3136 3137 3138 3138 3140 3140 3141 3140 3141 3139 3139 3140 3141 3143 3144 3145 3147 3148 3149 3150 3150 3151 3151 3151 3151 3152 3153 3155 3157 3160 3159 3159
3110 3112 3113 3115 3117 3117 3118 3119 3120 3123 3124 3125 3129 3130 3133 3134 3135 3136 3137 3137 3139 3140 3139 3140 3139 3140 3141 3142 3143 3144 3145 3146 3147 3148 3148 3148 3147 3149 3149 3150 3152 3154 3155 3156 3157
3108 3110 3112 3115 3116 3115 3114 3117 3118 3121 3122 3123 3124 3127 3128 3129 3131 3132 3133 3134 3135 3138 3138 3138 3138 3138 3139 3140 3141 3141 3141 3142 3143 3143 3144 3145 3144 3147 3147 3147 3147 3148 3150 3152 3155
3106 3109 3111 3113 3114 3114 3113 3114 3116 3117 3119 3120 3121 3123 3124 3125 3126 3127 3130 3132 3133 3135 3136 3137 3136 3137 3137 3137 3137 3139 3138 3138 3139 3140 3141 3142 3143 3143 3144 3143 3143 3144 3147 3149 3152